Flag for Guinea-Bissau Weather past 2 weeks in Bissau, Guinea-Bissau

Now
88 °F

Clear.


Feels Like: 85 °F
Forecast: N/A
Wind: 3 mph from Northwest

Location: Bissau Aeroport

Current Time: Jan 30, 2015 at 10:37:39 PM

Latest Report: Jan 30, 2015 at 7:00 PM


Visibility: 5 mi

Pressure: 29.83 "Hg

Humidity: 29%

Dew point: 52 °F

Location of BissauLocation

Historic Weather in Bissau — Graph

°F

Bissau temperature yesterday

Maximum temperature yesterday: 95 °F (at 3:00 PM)
Minimum temperature yesterday: 68 °F (at 7:00 AM)
Average temperature yesterday: 82 °F

Past Weeks' High & Low Weather Summary

 TemperatureHumidityPressure
High95 °F (Jan 26, 4:00 PM)94% (Jan 17, 6:00 AM)29.98 "Hg (Jan 17, 6:00 AM)
Low63 °F (Jan 20, 7:00 AM)12% (Jan 17, 3:00 PM)29.74 "Hg (Jan 25, 5:00 PM)
Average80 °F38%29.88 "Hg
* Reported Jan 15 7:00 PM — Jan 30 7:00 PM, Bissau, Weather by CustomWeather, © 2014

Note: Actual official high and low records may vary slightly from our data, if they occured in-between our weather recording intervals... More about our weather records

Advertising

Bissau weather history for previous 24 hours

 ConditionsComfort  
Time TempWeatherWind HumidityBarometerVisibility
7:00 PM
Jan 30
88 °FClear.3 mph29%29.83 "Hg5 mi
6:00 PM91 °FClear.6 mph18%29.83 "Hg5 mi
5:00 PM91 °FClear.5 mph18%29.83 "Hg5 mi
4:00 PM91 °FClear.3 mph18%29.80 "Hg5 mi
3:00 PM90 °FClear.5 mph20%29.83 "Hg5 mi
2:00 PM88 °FClear.9 mph17%29.86 "Hg5 mi
1:00 PM86 °FClear.7 mph17%29.89 "Hg5 mi
12:00 PM84 °FClear.7 mph16%29.92 "Hg5 mi
11:00 AM79 °FClear.10 mph16%29.92 "Hg5 mi
10:00 AM73 °FClear.12 mph25%29.92 "Hg4 mi
8:00 AM66 °FClear.3 mph40%29.89 "Hg4 mi
7:00 AM66 °FClear.5 mph37%29.89 "Hg4 mi
3:00 AM75 °FDuststorm.6 mph22%29.89 "Hg3 mi
2:00 AM75 °FDuststorm.8 mph24%29.89 "Hg3 mi
12:00 AM75 °FDuststorm.5 mph50%29.89 "Hg3 mi
11:00 PM
Jan 29
77 °FDuststorm.No wind47%29.92 "Hg3 mi
10:00 PM77 °FDuststorm.3 mph47%29.89 "Hg3 mi
Weather by CustomWeather, © 2014

See weather overviewHow to use our weather pages